GW6021 Weather Reports


time (UTC)temp
F
wind
direction
speed
knots
gust
knots
rain 1hr
in
rain 24hr
in
rain mn
in
humidity
%
barometer
mb
20260506160326 65 82 1.7 2.6 0.00 0.00 0.00 84 1013.5
20260506155825 66 354 0.0 3.5 0.00 0.00 0.00 83 1014.1
20260506155321 67 175 0.0 3.5 0.00 0.00 0.00 83 1013.5
20260506153433 68 262 0.9 4.3 0.00 0.00 0.00 82 1011.7
20260506152930 69 75 1.7 4.3 0.00 0.00 0.00 82 1011.8
20260506152427 70 82 0.9 4.3 0.00 0.00 0.00 81 1011.6
20260506151926 71 137 2.6 5.2 0.00 0.00 0.00 81 1011.3
20260506151422 73 130 1.7 3.5 0.00 0.00 0.00 79 1010.9
20260506150920 76 331 0.9 3.5 0.00 0.00 0.00 76 1011.0
20260506150416 78 52 0.0 1.7 0.00 0.00 0.00 83 1011.0
20260506145913 78 124 0.0 0.9 0.00 0.00 0.00 83 1010.6
20260506145409 78 119 0.0 1.7 0.00 0.00 0.00 83 1010.7
20260506144907 78 62 1.7 2.6 0.00 0.00 0.00 82 1010.3
20260506144403 78 73 1.7 2.6 0.00 0.00 0.00 83 1010.3
20260506143902 78 130 1.7 3.5 0.00 0.00 0.00 83 1010.0
20260506143358 78 130 0.9 1.7 0.00 0.00 0.00 83 1009.7
20260506142857 78 143 1.7 3.5 0.00 0.00 0.00 83 1010.0
20260506142354 78 118 0.9 2.6 0.00 0.00 0.00 83 1009.9
20260506141852 78 121 1.7 3.5 0.00 0.00 0.00 83 1009.5
20260506141350 78 144 2.6 2.6 0.00 0.00 0.00 84 1009.3
20260506140848 78 129 1.7 2.6 0.00 0.00 0.00 85 1009.3
20260506140344 78 81 1.7 1.7 0.00 0.00 0.00 86 1009.7
20260506135841 77 128 1.7 1.7 0.00 0.00 0.00 87 1009.6
20260506135338 77 131 1.7 1.7 0.00 0.00 0.00 88 1009.8
20260506134834 76 69 1.7 1.7 0.00 0.00 0.00 88 1009.7
20260506134331 76 149 1.7 1.7 0.00 0.00 0.00 87 1009.3
20260506133828 76 142 0.9 2.6 0.00 0.00 0.00 87 1009.2
20260506133325 77 129 0.0 1.7 0.00 0.00 0.00 87 1009.2
20260506132822 77 119 1.7 1.7 0.00 0.00 0.00 87 1009.1
20260506132319 76 113 0.9 1.7 0.00 0.00 0.00 87 1009.1
20260506131817 76 66 1.7 1.7 0.00 0.00 0.00 87 1009.3
20260506131313 76 124 1.7 1.7 0.00 0.00 0.00 88 1009.0
20260506130810 76 129 2.6 2.6 0.00 0.00 0.00 88 1009.0
20260506130306 76 111 0.9 2.6 0.00 0.00 0.00 88 1008.8
20260506125804 76 124 1.7 2.6 0.00 0.00 0.00 88 1008.7
20260506125305 75 47 1.7 1.7 0.00 0.00 0.00 89 1008.7
20260506124801 75 95 0.0 1.7 0.00 0.00 0.00 89 1008.7
20260506124257 75 128 1.7 2.6 0.00 0.00 0.00 90 1008.6
20260506123755 75 123 0.9 2.6 0.00 0.00 0.00 90 1008.3
20260506123253 75 125 1.7 2.6 0.00 0.00 0.00 91 1008.6
20260506122750 75 89 0.0 1.7 0.00 0.00 0.00 91 1008.4
20260506122247 75 143 1.7 1.7 0.00 0.00 0.00 91 1008.4
20260506121745 75 122 1.7 1.7 0.00 0.00 0.00 91 1008.5
20260506121242 75 132 0.9 1.7 0.00 0.00 0.00 91 1008.7
20260506120739 75 111 1.7 1.7 0.00 0.00 0.00 91 1008.6
20260506120237 75 122 0.0 0.9 0.00 0.00 0.00 91 1008.8
20260506115734 75 108 0.0 1.7 0.00 0.00 0.00 91 1008.7
20260506115232 75 93 0.0 1.7 0.00 0.00 0.00 91 1008.6
20260506114730 75 75 0.0 1.7 0.00 0.00 0.00 91 1008.6
20260506114227 75 84 0.9 1.7 0.00 0.00 0.00 91 1008.7
20260506113726 75 109 0.0 0.9 0.00 0.00 0.00 91 1008.7
20260506113223 75 122 0.0 0.9 0.00 0.00 0.00 91 1008.6
20260506112719 75 117 0.9 1.7 0.00 0.00 0.00 90 1008.6
20260506112217 75 81 0.9 1.7 0.00 0.00 0.00 90 1008.7
20260506111714 75 50 0.9 0.9 0.00 0.00 0.00 90 1008.7
20260506111212 75 84 0.0 0.9 0.00 0.00 0.00 90 1008.7
20260506110708 75 70 0.9 0.9 0.00 0.00 0.00 90 1008.8
20260506110206 75 93 0.0 0.9 0.00 0.00 0.00 90 1008.6
20260506105703 75 127 0.0 0.9 0.00 0.00 0.00 90 1008.6
20260506105159 75 133 0.9 1.7 0.00 0.00 0.00 89 1008.5
20260506104657 75 85 0.9 0.9 0.00 0.00 0.00 89 1008.6
20260506104155 75 67 0.9 1.7 0.00 0.00 0.00 89 1008.4
20260506103652 75 94 0.0 0.9 0.00 0.00 0.00 89 1008.4
20260506103149 75 75 0.0 0.9 0.00 0.00 0.00 89 1008.4
20260506102647 75 108 0.9 1.7 0.00 0.00 0.00 89 1008.3
20260506102144 75 67 0.9 0.9 0.00 0.00 0.00 89 1008.3
20260506101641 75 95 0.0 1.7 0.00 0.00 0.00 89 1008.2
20260506101138 75 76 0.0 0.9 0.00 0.00 0.00 89 1008.0
20260506100636 75 144 0.0 0.9 0.00 0.00 0.00 89 1008.2
20260506100134 75 98 1.7 1.7 0.00 0.00 0.00 89 1008.1
20260506095632 75 127 0.9 1.7 0.00 0.00 0.00 89 1008.0
20260506095128 75 180 0.0 1.7 0.00 0.00 0.00 89 1008.1
20260506094626 75 109 0.9 3.5 0.00 0.00 0.00 89 1008.0
20260506094124 75 154 1.7 3.5 0.00 0.00 0.00 89 1007.8
20260506093622 75 121 2.6 4.3 0.00 0.00 0.00 89 1007.9
20260506093119 75 136 1.7 4.3 0.00 0.00 0.00 89 1007.8
20260506092617 75 174 0.0 3.5 0.00 0.00 0.00 88 1007.6
20260506092114 76 89 0.0 3.5 0.00 0.00 0.00 88 1007.8
20260506091612 76 119 0.0 3.5 0.00 0.00 0.00 87 1007.4
20260506091109 76 192 1.7 3.5 0.00 0.00 0.00 87 1007.6
20260506090607 76 71 0.9 5.2 0.00 0.00 0.00 87 1007.4
20260506085600 76 174 0.9 5.2 0.00 0.00 0.00 87 1007.2
20260506085056 76 174 0.0 4.3 0.00 0.00 0.00 86 1007.2
20260506084553 76 135 2.6 2.6 0.00 0.00 0.00 86 1007.5
20260506084049 76 205 0.0 1.7 0.00 0.00 0.00 86 1007.3
20260506083546 76 186 2.6 3.5 0.00 0.00 0.00 86 1007.4
20260506083043 76 148 1.7 2.6 0.00 0.00 0.00 86 1007.2
20260506082540 76 76 0.0 1.7 0.00 0.00 0.00 86 1007.5
20260506082036 76 152 1.7 3.5 0.00 0.00 0.00 86 1007.4
20260506081534 76 162 3.5 5.2 0.00 0.00 0.00 86 1007.4
20260506081031 76 73 1.7 4.3 0.00 0.00 0.00 86 1007.5
20260506080529 76 164 0.9 4.3 0.00 0.00 0.00 86 1007.6
20260506073513 76 217 0.9 7.8 0.00 0.00 0.00 84 1007.8
20260506073010 76 124 5.2 5.2 0.00 0.00 0.00 84 1007.8
20260506072507 77 125 2.6 3.5 0.00 0.00 0.00 84 1007.8
20260506072004 76 126 2.6 6.1 0.00 0.00 0.00 84 1007.8
20260506071502 77 56 0.9 3.5 0.00 0.00 0.00 84 1007.8
20260506070959 76 200 1.7 5.2 0.00 0.00 0.00 84 1007.7
20260506070456 76 141 3.5 7.8 0.00 0.00 0.00 84 1007.8
20260506062433 76 198 1.7 5.2 0.00 0.00 0.00 86 1007.8
20260506061929 76 144 0.9 4.3 0.00 0.00 0.00 86 1007.9
20260506061426 76 59 1.7 2.6 0.00 0.00 0.00 86 1007.7
20260506060924 76 180 1.7 5.2 0.00 0.00 0.00 86 1007.9
20260506060422 76 145 3.5 4.3 0.00 0.00 0.00 85 1007.9
20260506051354 76 127 1.7 5.2 0.00 0.00 0.00 86 1007.6
20260506050851 76 128 1.7 2.6 0.00 0.00 0.00 86 1007.7
20260506050349 77 72 0.9 5.2 0.00 0.00 0.00 86 1007.9
20260506044839 77 140 1.7 7.8 0.00 0.00 0.00 86 1007.9
20260506044337 77 192 1.7 3.5 0.00 0.00 0.00 86 1007.8
20260506043834 77 144 1.7 3.5 0.00 0.00 0.00 86 1007.8
20260506043331 77 98 0.9 2.6 0.00 0.00 0.00 86 1007.6
20260506042829 77 100 0.0 4.3 0.00 0.00 0.00 86 1007.8
20260506042328 77 72 2.6 5.2 0.00 0.00 0.00 86 1007.9
20260506041826 77 132 0.9 1.7 0.00 0.00 0.00 86 1007.8
20260506041323 77 118 0.9 1.7 0.00 0.00 0.00 85 1007.6
20260506040820 77 176 1.7 1.7 0.00 0.00 0.00 85 1007.6
20260506040317 77 177 1.7 3.5 0.00 0.00 0.00 85 1007.6
20260506035814 77 122 2.6 3.5 0.00 0.00 0.00 85 1007.6
20260506035311 77 140 1.7 3.5 0.00 0.00 0.00 85 1007.5
20260506034808 77 121 0.9 3.5 0.00 0.00 0.00 84 1007.6
20260506034305 77 68 0.9 2.6 0.00 0.00 0.00 84 1007.2
20260506033802 77 191 1.7 1.7 0.00 0.00 0.00 84 1007.2
20260506033259 78 132 1.7 2.6 0.00 0.00 0.00 83 1007.0
20260506032756 78 128 1.7 2.6 0.00 0.00 0.00 83 1007.2
20260506032253 78 80 1.7 2.6 0.00 0.00 0.00 83 1007.3
20260506031749 78 134 0.9 1.7 0.00 0.00 0.00 82 1007.2
20260506031247 78 120 0.0 3.5 0.00 0.00 0.00 82 1007.2
20260506030745 78 111 0.9 2.6 0.00 0.00 0.00 81 1007.0
20260506030242 78 133 2.6 5.2 0.00 0.00 0.00 81 1006.9
20260506025739 78 158 1.7 4.3 0.00 0.00 0.00 81 1006.7
20260506025235 78 132 1.7 3.5 0.00 0.00 0.00 80 1006.7
20260506024732 78 102 0.0 2.6 0.00 0.00 0.00 80 1006.7
20260506024229 78 140 1.7 3.5 0.00 0.00 0.00 80 1006.6
20260506023725 79 120 0.9 1.7 0.00 0.00 0.00 79 1006.6
20260506023223 79 114 1.7 1.7 0.00 0.00 0.00 79 1006.5
20260506022719 79 98 0.0 1.7 0.00 0.00 0.00 79 1006.5
20260506022217 79 124 1.7 3.5 0.00 0.00 0.00 79 1006.4
20260506021715 79 156 0.0 2.6 0.00 0.00 0.00 79 1006.3
20260506021212 79 141 0.0 2.6 0.00 0.00 0.00 78 1006.0
20260506020708 79 131 0.9 3.5 0.00 0.00 0.00 78 1006.0
20260506020206 79 135 0.9 2.6 0.00 0.00 0.00 78 1006.0
20260506015704 79 139 0.0 2.6 0.00 0.00 0.00 78 1006.0
20260506015201 79 145 1.7 3.5 0.00 0.00 0.00 77 1005.8
20260506014658 80 117 1.7 1.7 0.00 0.00 0.00 77 1005.8
20260506014154 80 131 0.0 2.6 0.00 0.00 0.00 76 1005.7
20260506013652 80 133 1.7 2.6 0.00 0.00 0.00 76 1005.5
20260506013149 80 113 0.0 1.7 0.00 0.00 0.00 75 1005.6
20260506012645 80 133 1.7 1.7 0.00 0.00 0.00 75 1005.6
20260506012142 80 137 1.7 3.5 0.00 0.00 0.00 75 1005.5
20260506011639 81 132 2.6 4.3 0.00 0.00 0.00 75 1005.5
20260506011135 81 112 1.7 2.6 0.00 0.00 0.00 74 1005.4
20260506010634 81 138 1.7 2.6 0.00 0.00 0.00 73 1005.5
20260506010131 82 134 0.9 2.6 0.00 0.00 0.00 73 1005.7
20260506005628 82 158 0.9 2.6 0.00 0.00 0.00 72 1005.4
20260506005124 82 198 0.9 4.3 0.00 0.00 0.00 72 1005.6
20260506004621 82 127 1.7 1.7 0.00 0.00 0.00 71 1005.6
20260506004118 82 184 0.9 3.5 0.00 0.00 0.00 71 1005.8
20260506003614 82 134 1.7 2.6 0.00 0.00 0.00 70 1005.6
20260506003110 83 119 1.7 1.7 0.00 0.00 0.00 70 1005.7
20260506002606 83 126 0.9 1.7 0.00 0.00 0.00 70 1005.8
20260506002102 83 146 2.6 2.6 0.00 0.00 0.00 69 1005.6
20260506001559 83 132 1.7 1.7 0.00 0.00 0.00 69 1005.6
20260506001056 83 175 0.0 2.6 0.00 0.00 0.00 69 1005.5
20260506000553 83 125 1.7 2.6 0.00 0.00 0.00 69 1005.6
20260506000051 83 145 5.2 5.2 0.00 0.00 0.00 68 1005.6
20260505235549 84 192 1.7 2.6 0.00 0.00 0.00 68 1005.7
20260505235045 84 135 1.7 2.6 0.00 0.00 0.00 68 1005.6
20260505234542 84 192 0.9 2.6 0.00 0.00 0.00 68 1005.3
20260505234039 84 144 1.7 2.6 0.00 0.00 0.00 67 1005.3
20260505233536 84 148 2.6 6.1 0.00 0.00 0.00 66 1005.2
20260505233034 84 123 2.6 6.1 0.00 0.00 0.00 67 1005.3
20260505232531 84 84 1.7 3.5 0.00 0.00 0.00 66 1005.3
20260505232029 84 187 1.7 4.3 0.00 0.00 0.00 66 1005.2
20260505231526 84 134 1.7 5.2 0.00 0.00 0.00 66 1005.3
20260505231025 85 114 2.6 3.5 0.00 0.00 0.00 66 1005.1
20260505230521 85 137 3.5 4.3 0.00 0.00 0.00 65 1005.4
20260505230018 85 155 2.6 3.5 0.00 0.00 0.00 65 1005.2
20260505225515 84 142 2.6 3.5 0.00 0.00 0.00 65 1005.4
20260505225011 85 158 2.6 8.7 0.00 0.00 0.00 65 1005.1
20260505224508 85 150 2.6 4.3 0.00 0.00 0.00 65 1005.1
20260505224005 85 231 1.7 4.3 0.00 0.00 0.00 64 1005.2
20260505223502 85 128 1.7 3.5 0.00 0.00 0.00 65 1005.2
20260505222958 86 132 3.5 7.0 0.00 0.00 0.00 63 1005.2
20260505222454 86 227 3.5 7.0 0.00 0.00 0.00 63 1005.0
20260505221950 86 145 0.9 4.3 0.00 0.00 0.00 64 1005.1
20260505221448 86 210 0.9 3.5 0.00 0.00 0.00 64 1005.0
20260505220945 86 119 1.7 7.8 0.00 0.00 0.00 63 1005.1
20260505220442 86 166 2.6 4.3 0.00 0.00 0.00 63 1005.2
20260505215939 86 169 2.6 4.3 0.00 0.00 0.00 62 1005.2
20260505215437 87 235 3.5 3.5 0.00 0.00 0.00 62 1004.9
20260505214935 87 133 0.9 3.5 0.00 0.00 0.00 61 1005.3
20260505214432 88 198 1.7 3.5 0.00 0.00 0.00 60 1005.2
20260505213929 87 193 1.7 7.0 0.00 0.00 0.00 61 1005.3
20260505213427 87 52 0.9 8.7 0.00 0.00 0.00 60 1005.5
20260505212923 87 140 3.5 7.0 0.00 0.00 0.00 59 1005.5
20260505212420 87 217 1.7 7.8 0.00 0.00 0.00 59 1005.4
20260505211916 88 216 3.5 4.3 0.00 0.00 0.00 60 1005.8
20260505211414 87 208 1.7 3.5 0.00 0.00 0.00 60 1005.7
20260505210910 87 150 2.6 7.8 0.00 0.00 0.00 59 1005.7
20260505210408 88 176 2.6 5.2 0.00 0.00 0.00 58 1005.8
20260505205905 88 108 1.7 5.2 0.00 0.00 0.00 59 1005.6
20260505205403 88 146 3.5 6.1 0.00 0.00 0.00 60 1005.8
20260505204859 87 189 2.6 7.0 0.00 0.00 0.00 60 1005.7
20260505204357 87 202 3.5 5.2 0.00 0.00 0.00 58 1005.9
20260505203855 89 197 3.5 6.1 0.00 0.00 0.00 59 1006.0
20260505203350 88 153 4.3 4.3 0.00 0.00 0.00 59 1006.0
20260505202847 87 41 1.7 6.1 0.00 0.00 0.00 63 1006.1
20260505202343 87 113 2.6 6.1 0.00 0.00 0.00 60 1006.2
20260505201840 86 154 1.7 3.5 0.00 0.00 0.00 61 1006.4
20260505201337 86 166 1.7 6.1 0.00 0.00 0.00 62 1006.4
20260505200836 87 132 3.5 7.0 0.00 0.00 0.00 61 1006.7
20260505200332 87 190 3.5 7.0 0.00 0.00 0.00 61 1006.7
20260505195827 87 176 1.7 4.3 0.00 0.00 0.00 61 1006.8
20260505195325 87 120 1.7 3.5 0.00 0.00 0.00 64 1006.7
20260505194822 86 224 2.6 9.6 0.00 0.00 0.00 62 1006.8
20260505194319 85 210 2.6 4.3 0.00 0.00 0.00 64 1006.9
20260505193814 86 133 2.6 5.2 0.00 0.00 0.00 63 1006.8
20260505193313 86 139 1.7 4.3 0.00 0.00 0.00 63 1007.0
20260505192810 86 193 2.6 3.5 0.00 0.00 0.00 63 1006.8
20260505192310 85 150 4.3 7.8 0.00 0.00 0.00 64 1006.9
20260505191805 85 97 1.7 9.6 0.00 0.00 0.00 64 1007.2
20260505191304 85 189 0.0 5.2 0.00 0.00 0.00 64 1007.3
20260505190800 84 173 0.9 3.5 0.00 0.00 0.00 66 1007.2
20260505190255 84 209 1.7 7.0 0.00 0.00 0.00 64 1007.1
20260505185752 84 237 4.3 5.2 0.00 0.00 0.00 65 1007.3
20260505185248 84 159 4.3 5.2 0.00 0.00 0.00 64 1007.3
20260505184744 84 173 1.7 7.8 0.00 0.00 0.00 65 1007.3
20260505184242 83 245 4.3 5.2 0.00 0.00 0.00 66 1007.5
20260505183738 83 158 4.3 5.2 0.00 0.00 0.00 66 1007.4
20260505183236 83 204 1.7 5.2 0.00 0.00 0.00 68 1007.5
20260505182732 82 213 0.9 5.2 0.00 0.00 0.00 67 1007.6
20260505182229 81 211 2.6 4.3 0.00 0.00 0.00 70 1007.7
20260505181725 81 191 1.7 1.7 0.00 0.00 0.00 70 1007.9
20260505181223 81 174 0.0 3.5 0.00 0.00 0.00 69 1007.8
20260505180720 81 217 3.5 5.2 0.00 0.00 0.00 70 1008.1
20260505180216 81 163 1.7 4.3 0.00 0.00 0.00 70 1008.0
20260505175712 81 183 1.7 3.5 0.00 0.00 0.00 72 1008.1
20260505175209 80 196 2.6 4.3 0.00 0.00 0.00 73 1008.1
20260505174705 79 210 0.9 8.7 0.00 0.00 0.00 73 1008.3
20260505174202 79 184 1.7 3.5 0.00 0.00 0.00 74 1008.4
20260505173658 78 178 1.7 3.5 0.00 0.00 0.00 75 1008.4
20260505173155 78 169 2.6 5.2 0.00 0.00 0.00 75 1008.5
20260505172653 77 201 1.7 4.3 0.00 0.00 0.00 76 1008.5
20260505172149 77 218 1.7 3.5 0.00 0.00 0.00 77 1008.4
20260505171649 77 225 5.2 5.2 0.00 0.00 0.00 77 1008.4
20260505171147 77 180 3.5 8.7 0.00 0.00 0.00 77 1008.6
20260505170644 76 110 1.7 5.2 0.00 0.00 0.00 78 1008.6
20260505170140 76 134 4.3 4.3 0.00 0.00 0.00 78 1008.7
20260505165640 76 194 2.6 4.3 0.00 0.00 0.00 78 1008.7
20260505165137 76 230 1.7 6.1 0.00 0.00 0.00 79 1008.7
20260505164632 76 160 4.3 7.0 0.00 0.00 0.00 78 1008.6
20260505164130 75 169 3.5 9.6 0.00 0.00 0.00 80 1008.5
20260505163628 75 145 4.3 5.2 0.00 0.00 0.00 80 1008.7
20260505163126 75 161 1.7 2.6 0.00 0.00 0.00 81 1008.4
20260505162623 75 174 1.7 5.2 0.00 0.00 0.00 81 1008.6
20260505162120 75 187 2.6 4.3 0.00 0.00 0.00 81 1008.5
20260505161617 75 129 0.9 3.5 0.00 0.00 0.00 82 1008.5
20260505161115 74 144 3.5 6.1 0.00 0.00 0.00 82 1008.4
20260505160612 74 163 3.5 5.2 0.00 0.00 0.00 82 1008.6